When you browse on this site, cookies collect data to enhance your experience and personalize the content and advertising you see.
Visit our Privacy Policy to learn more. By continuing to use the site, you agree to this use of cookies and data.
  • In Switzerland
  • List of Countries
  • For 7 days
  • Water Temperature
  • Satellite Maps
  • Weather Map
  • Weather Widgets
  • user-avatar
    Login

    Hourly Weather Dzhalalabad

    Today, 23 January, Wednesday

    Time Temperature Precipitation Wind Pressure Humidity
    00:00 -2°C° 0 mm 0 mps 692 mmHg 75%
    01:00 -2°C° 0 mm 0 mps 693 mmHg 75%
    02:00 -2°C° 0 mm 0 mps 693 mmHg 75%
    03:00 -2°C° 0 mm 0 mps 693 mmHg 75%
    04:00 -2°C° 0 mm 0 mps 694 mmHg 75%
    05:00 -1°C° 0 mm 1 mps 694 mmHg 75%
    06:00 -1°C° 0 mm 1 mps 694 mmHg 74%
    07:00 -2°C° 0 mm 0 mps 694 mmHg 74%
    08:00 -2°C° 0 mm 0 mps 694 mmHg 73%
    09:00 -1°C° 0 mm 0 mps 694 mmHg 70%
    10:00 +1°C° 0 mm 1 mps 694 mmHg 66%
    11:00 +2°C° 0 mm 1 mps 693 mmHg 63%
    12:00 +3°C° 0 mm 1 mps 693 mmHg 62%
    13:00 +3°C° 0 mm 1 mps 693 mmHg 61%
    14:00 +4°C° 0 mm 1 mps 693 mmHg 60%
    15:00 +2°C° 0 mm 0 mps 693 mmHg 63%
    16:00 +2°C° 0 mm 0 mps 694 mmHg 65%
    17:00 +1°C° 0 mm 0 mps 694 mmHg 68%
    18:00 +1°C° 0 mm 0 mps 695 mmHg 68%
    19:00 +1°C° 0 mm 0 mps 696 mmHg 69%
    20:00 +1°C° 0 mm 0 mps 696 mmHg 70%
    21:00 +1°C° 0 mm 1 mps 697 mmHg 70%
    22:00 +1°C° 0 mm 1 mps 697 mmHg 71%
    23:00 +1°C° 0 mm 1 mps 697 mmHg 72%

    Tomorrow, 24 January, Thursday

    Time Temperature Precipitation Wind Pressure Humidity
    00:00 +1°C° 0 mm 1 mps 698 mmHg 72%
    01:00 +1°C° 0 mm 1 mps 698 mmHg 72%
    02:00 +1°C° 0 mm 1 mps 698 mmHg 72%
    03:00 0°C° 0 mm 1 mps 699 mmHg 71%
    04:00 0°C° 0 mm 1 mps 699 mmHg 71%
    05:00 -1°C° 0 mm 0 mps 700 mmHg 70%
    06:00 0°C° 0 mm 1 mps 700 mmHg 69%
    07:00 0°C° 0 mm 1 mps 701 mmHg 68%
    08:00 0°C° 0 mm 1 mps 701 mmHg 67%
    09:00 +1°C° 0 mm 1 mps 701 mmHg 63%
    10:00 +3°C° 0 mm 1 mps 701 mmHg 60%
    11:00 +4°C° 0 mm 1 mps 701 mmHg 56%
    12:00 +5°C° 0 mm 1 mps 701 mmHg 55%
    13:00 +5°C° 0 mm 1 mps 700 mmHg 54%
    14:00 +5°C° 0 mm 1 mps 700 mmHg 52%
    15:00 +5°C° 0 mm 1 mps 701 mmHg 54%
    16:00 +4°C° 0 mm 1 mps 701 mmHg 57%
    17:00 +3°C° 0 mm 1 mps 702 mmHg 59%
    18:00 +3°C° 0 mm 1 mps 702 mmHg 58%
    19:00 +2°C° 0 mm 1 mps 703 mmHg 58%
    20:00 +1°C° 0 mm 2 mps 704 mmHg 58%
    21:00 -1°C° 0 mm 2 mps 704 mmHg 56%
    22:00 -1°C° 0 mm 2 mps 704 mmHg 54%
    23:00 -2°C° 0 mm 2 mps 704 mmHg 53%

    Day after tomorrow, 25 January, Friday

    Time Temperature Precipitation Wind Pressure Humidity
    00:00 -2°C° 0 mm 2 mps 704 mmHg 51%
    01:00 -2°C° 0 mm 2 mps 704 mmHg 49%
    02:00 -2°C° 0 mm 2 mps 704 mmHg 47%
    03:00 -2°C° 0 mm 2 mps 704 mmHg 46%
    04:00 -3°C° 0 mm 2 mps 703 mmHg 45%
    05:00 -3°C° 0 mm 2 mps 703 mmHg 44%
    06:00 -3°C° 0 mm 2 mps 703 mmHg 43%
    07:00 -3°C° 0 mm 2 mps 703 mmHg 42%
    08:00 -3°C° 0 mm 2 mps 703 mmHg 41%
    09:00 -1°C° 0 mm 2 mps 702 mmHg 38%
    10:00 +1°C° 0 mm 2 mps 701 mmHg 35%
    11:00 +4°C° 0 mm 1 mps 700 mmHg 31%
    12:00 +5°C° 0 mm 1 mps 700 mmHg 32%
    13:00 +5°C° 0 mm 1 mps 699 mmHg 33%
    14:00 +6°C° 0 mm 1 mps 698 mmHg 33%
    15:00 +5°C° 0 mm 1 mps 698 mmHg 37%
    16:00 +4°C° 0 mm 1 mps 699 mmHg 40%
    17:00 +3°C° 0 mm 1 mps 699 mmHg 43%
    18:00 +3°C° 0 mm 1 mps 700 mmHg 45%
    19:00 +2°C° 0 mm 1 mps 701 mmHg 46%
    20:00 +1°C° 0 mm 2 mps 701 mmHg 47%
    21:00 -1°C° 0 mm 2 mps 701 mmHg 46%
    22:00 -1°C° 0 mm 2 mps 701 mmHg 45%
    23:00 -2°C° 0 mm 2 mps 701 mmHg 44%

    26 January, Saturday

    Time Temperature Precipitation Wind Pressure Humidity
    00:00 -2°C° 0 mm 2 mps 701 mmHg 42%
    01:00 -2°C° 0 mm 2 mps 701 mmHg 40%
    02:00 -2°C° 0 mm 2 mps 701 mmHg 39%
    03:00 -2°C° 0 mm 2 mps 701 mmHg 38%
    04:00 -2°C° 0 mm 2 mps 701 mmHg 37%
    05:00 -3°C° 0 mm 2 mps 701 mmHg 37%
    06:00 -3°C° 0 mm 2 mps 701 mmHg 36%
    07:00 -3°C° 0 mm 2 mps 701 mmHg 36%
    08:00 -3°C° 0 mm 2 mps 701 mmHg 36%
    09:00 -1°C° 0 mm 2 mps 701 mmHg 34%
    10:00 +2°C° 0 mm 2 mps 700 mmHg 31%
    11:00 +5°C° 0 mm 1 mps 699 mmHg 29%
    12:00 +6°C° 0 mm 1 mps 699 mmHg 29%
    13:00 +6°C° 0 mm 1 mps 698 mmHg 29%
    14:00 +7°C° 0 mm 1 mps 698 mmHg 29%
    15:00 +6°C° 0 mm 1 mps 698 mmHg 32%
    16:00 +5°C° 0 mm 1 mps 698 mmHg 36%
    17:00 +4°C° 0 mm 1 mps 699 mmHg 39%
    18:00 +4°C° 0 mm 1 mps 700 mmHg 40%
    19:00 +3°C° 0 mm 1 mps 700 mmHg 41%
    20:00 +1°C° 0 mm 2 mps 701 mmHg 42%
    21:00 +1°C° 0 mm 2 mps 701 mmHg 41%
    22:00 -1°C° 0 mm 2 mps 701 mmHg 40%
    23:00 -1°C° 0 mm 2 mps 701 mmHg 40%

    27 January, Sunday

    Time Temperature Precipitation Wind Pressure Humidity
    00:00 -1°C° 0 mm 2 mps 701 mmHg 38%
    01:00 -1°C° 0 mm 2 mps 701 mmHg 37%
    02:00 -2°C° 0 mm 2 mps 701 mmHg 36%
    03:00 -2°C° 0 mm 2 mps 701 mmHg 35%
    04:00 -2°C° 0 mm 2 mps 701 mmHg 35%
    05:00 -2°C° 0 mm 2 mps 701 mmHg 34%
    06:00 -2°C° 0 mm 2 mps 701 mmHg 33%
    07:00 -2°C° 0 mm 2 mps 702 mmHg 33%
    08:00 -2°C° 0 mm 2 mps 702 mmHg 32%
    09:00 +1°C° 0 mm 2 mps 701 mmHg 31%
    10:00 +4°C° 0 mm 1 mps 701 mmHg 29%
    11:00 +5°C° 0 mm 1 mps 700 mmHg 27%
    12:00 +6°C° 0 mm 1 mps 700 mmHg 27%
    13:00 +6°C° 0 mm 1 mps 699 mmHg 27%
    14:00 +7°C° 0 mm 1 mps 699 mmHg 26%
    15:00 +6°C° 0 mm 1 mps 699 mmHg 29%
    16:00 +6°C° 0 mm 1 mps 700 mmHg 32%
    17:00 +5°C° 0 mm 1 mps 700 mmHg 35%
    18:00 +4°C° 0 mm 1 mps 701 mmHg 37%
    19:00 +3°C° 0 mm 2 mps 701 mmHg 40%
    20:00 +2°C° 0 mm 2 mps 702 mmHg 42%
    21:00 +2°C° 0 mm 2 mps 702 mmHg 42%
    22:00 +1°C° 0 mm 2 mps 702 mmHg 41%
    23:00 +1°C° 0 mm 2 mps 702 mmHg 41%

    28 January, Monday

    Time Temperature Precipitation Wind Pressure Humidity
    00:00 +1°C° 0 mm 2 mps 702 mmHg 40%
    01:00 +1°C° 0 mm 2 mps 702 mmHg 39%
    02:00 -1°C° 0 mm 2 mps 702 mmHg 38%
    03:00 -1°C° 0 mm 2 mps 702 mmHg 38%
    04:00 +1°C° 0 mm 2 mps 702 mmHg 37%
    05:00 +1°C° 0 mm 2 mps 701 mmHg 37%
    06:00 +1°C° 0 mm 2 mps 701 mmHg 37%
    07:00 +1°C° 0 mm 2 mps 701 mmHg 38%
    08:00 +1°C° 0 mm 2 mps 702 mmHg 38%
    09:00 +3°C° 0 mm 2 mps 701 mmHg 36%
    10:00 +5°C° 0 mm 2 mps 700 mmHg 35%
    11:00 +7°C° 0 mm 2 mps 699 mmHg 33%
    12:00 +7°C° 0 mm 2 mps 699 mmHg 33%
    13:00 +8°C° 0 mm 2 mps 698 mmHg 33%
    14:00 +9°C° 0 mm 2 mps 697 mmHg 34%
    15:00 +8°C° 0 mm 2 mps 697 mmHg 36%
    16:00 +8°C° 0 mm 1 mps 697 mmHg 39%
    17:00 +8°C° 0 mm 1 mps 697 mmHg 42%
    18:00 +7°C° 0 mm 1 mps 697 mmHg 42%
    19:00 +7°C° 0 mm 1 mps 697 mmHg 43%
    20:00 +7°C° 0 mm 1 mps 697 mmHg 43%
    21:00 +6°C° 0 mm 1 mps 697 mmHg 44%
    22:00 +6°C° 0 mm 1 mps 696 mmHg 45%
    23:00 +6°C° 0 mm 1 mps 696 mmHg 45%
    Show more